[[{"header":{"parameterUnit":"m.s-1","parameterCategory":1,"la1":30.2991,"la2":30.254,"lo1":-89.0895,"lo2":-89.0444,"dy":0.0017,"dx":0.0017,"nx":28,"ny":28,"refTime":"2024-04-06T03:00:00:Z","depth":0,"parameterNumber":2,"parameterNumberName":"U-component_of_WINDS"},"data":[0,0,0,0,0,0,0,0,0,0,0,0,0,0,0,0,0,0,0,0,0,0,0,0,0,0,0,0,0,0,0,0,0,0,0,0,0,0,0,0,0,0,0,0,0,0,0,0,0,0,0,0,0,0,0,0,0,0,-2.8072,-2.8071,0,-2.8028,-2.8028,-2.8027,-2.7929,-2.7927,-2.7925,-2.7923,-2.7878,-2.7879,-2.788,0,0,0,0,0,0,0,0,0,0,0,0,0,-2.8072,-2.8073,-2.8072,-2.8071,-2.8071,-2.8028,-2.8028,-2.8027,-2.7929,-2.7926,-2.7924,-2.7922,-2.7878,-2.7879,-2.788,0,0,0,0,0,0,0,0,0,0,0,0,0,-2.8055,-2.8073,-2.8072,-2.8017,-2.8011,-2.8028,-2.8028,-2.8027,-2.7929,-2.7926,-2.7923,-2.7921,-2.7878,-2.7879,-2.788,-2.7947,0,0,-2.7883,-2.7884,0,0,0,0,0,0,0,0,-2.8056,-2.8055,-2.8025,-2.802,-2.8014,-2.7981,-2.8011,-2.8,-2.793,-2.7961,-2.7923,-2.7919,-2.7915,-2.7913,-2.7911,-2.7945,-2.7943,-2.7883,-2.7884,-2.7884,-2.7885,0,0,0,0,0,0,0,-2.8057,-2.8056,-2.8054,-2.8025,-2.8018,-2.7995,-2.7989,-2.8009,-2.7955,-2.7958,-2.795,-2.7947,-2.7911,-2.791,-2.7909,-2.7943,-2.7883,-2.7884,-2.7885,-2.7885,-2.8031,-2.8034,0,0,0,0,0,0,-2.8066,-2.8058,-2.8056,-2.8053,-2.8028,-2.7997,-2.7991,-2.7995,-2.7955,-2.7946,-2.7949,-2.7942,-2.791,-2.7908,-2.7907,-2.7983,-2.7884,-2.7885,-2.7886,-2.8028,-2.8032,-2.8036,0,0,0,0,0,0,-2.8067,-2.8067,-2.8057,-2.8053,-2.805,-2.8,-2.8006,-2.7995,-2.7994,-2.7948,-2.7938,-2.7958,-2.7908,-2.7906,-2.7938,-2.798,-2.7886,-2.7887,-2.8024,-2.8029,-2.8034,-2.8136,0,0,0,0,0,0,-2.8067,-2.8068,-2.8092,-2.8055,-2.8051,-2.8089,-2.8008,-2.7997,-2.7996,-2.7987,-2.7954,-2.7946,-2.7905,-2.7937,-2.7939,-2.798,-2.7888,-2.802,-2.8026,-2.8032,-2.8129,-2.8144,-2.8157,0,0,0,0,0,-2.8067,-2.8122,-2.8093,-2.8094,-2.808,-2.8091,-2.8089,-2.8041,-2.8,-2.8024,-2.7996,-2.7947,-2.7977,-2.7941,-2.7943,-2.7985,-2.8017,-2.8025,-2.8032,-2.8122,-2.8141,-2.8157,0,0,0,0,0,0,-2.8164,-2.8116,-2.8084,-2.8128,-2.8115,-2.8074,-2.8103,-2.8062,-2.806,-2.8051,-2.7992,-2.7986,-2.8026,-2.8009,-2.7971,-2.8049,-2.7989,-2.7997,-2.8058,-2.8075,-2.8089,-2.8091,-2.7888,0,0,0,0,0,-2.8192,-2.8204,-2.8161,-2.8205,-2.82,-2.8153,-2.8156,-2.8121,-2.8104,-2.8098,-2.8071,-2.8058,-2.8064,-2.8069,-2.8072,-2.8128,-2.8119,-2.8157,-2.8172,-2.8183,-2.819,-2.8219,-2.8235,-2.8059,-2.8059,-2.8059,0,0,-2.8246,-2.8222,-2.8233,-2.8224,-2.8209,-2.8224,-2.8149,-2.8167,-2.8178,-2.8101,-2.8129,-2.811,-2.8091,-2.8136,-2.8154,-2.8122,-2.8237,-2.8193,-2.8203,-2.8202,-2.8228,-2.8244,-2.8259,-2.8064,-2.8064,-2.8063,0,0,-2.8353,-2.8336,-2.837,-2.8358,-2.8337,-2.8307,-2.8316,-2.8282,-2.8267,-2.8295,-2.8238,-2.8251,-2.8263,-2.8251,-2.8247,-2.8356,-2.831,-2.8359,-2.8431,-2.8459,-2.8473,-2.8485,-2.8523,-2.8537,-2.8366,-2.8366,-2.8366,0,-2.8423,-2.8443,-2.8393,-2.8416,-2.8414,-2.8347,-2.8382,-2.8372,-2.8354,-2.8354,-2.8321,-2.8335,-2.8318,-2.8359,-2.8386,-2.8385,-2.8393,-2.836,-2.8475,-2.8487,-2.8497,-2.8532,-2.8547,-2.8372,-2.8371,-2.8371,-2.837,0,-2.853,-2.8545,-2.8576,-2.856,-2.8562,-2.8591,-2.8547,-2.8555,-2.8521,-2.8495,-2.8526,-2.8503,-2.8501,-2.8509,-2.8476,-2.8546,-2.8527,-2.8486,-2.8424,-2.8521,-2.8552,-2.8566,-2.838,-2.8378,-2.8377,-2.8375,0,0,-2.8692,-2.8652,-2.8664,-2.8656,-2.8631,-2.8641,-2.8669,-2.8667,-2.8675,-2.8667,-2.8688,-2.8702,-2.8663,-2.8659,-2.8625,-2.8651,-2.8737,-2.8605,-2.8604,-2.8629,-2.8813,-2.8843,-2.8859,-2.8709,-2.8711,-2.8713,-2.8814,0,-2.8791,-2.8833,-2.8792,-2.8843,-2.8856,-2.8795,-2.8819,-2.8806,-2.8784,-2.8793,-2.8768,-2.8778,-2.8728,-2.8725,-2.8748,-2.8722,-2.8773,-2.8714,-2.8727,-2.8728,-2.873,-2.8876,-2.8906,-2.9002,-2.8826,-2.8828,-2.883,0,-2.8911,-2.8908,-2.8961,-2.8934,-2.8938,-2.8959,-2.8956,-2.8965,-2.8951,-2.8933,-2.8931,-2.889,-2.8916,-2.8859,-2.8893,-2.8855,-2.8858,-2.8847,-2.885,-2.8846,-2.8782,-2.8874,-2.9032,-2.9046,-2.8849,-2.8848,-2.8846,0,-2.9022,-2.9032,-2.9065,-2.9061,-2.903,-2.9047,-2.9036,-2.9018,-2.9021,-2.9019,-2.902,-2.9021,-2.9021,-2.9024,-2.8985,-2.8947,-2.9025,-2.8965,-2.901,-2.9011,-2.9026,-2.9025,-2.9184,-2.9034,-2.9033,-2.9033,-2.9033,0,-2.9135,-2.9169,-2.9114,-2.9134,-2.9172,-2.9125,-2.9163,-2.9146,-2.9132,-2.9148,-2.9097,-2.9113,-2.9062,-2.9074,-2.9044,-2.9078,-2.9079,-2.9065,-2.9056,-2.9067,-2.9069,-2.9066,-2.9058,-2.9037,-2.9036,-2.9035,-2.9035,0,-2.9263,-2.9228,-2.926,-2.923,-2.9223,-2.9252,-2.9226,-2.9244,-2.922,-2.9241,-2.9244,-2.9206,-2.9217,-2.918,-2.9185,-2.9165,-2.9214,-2.9196,-2.9218,-2.9212,-2.9259,-2.9254,-2.942,-2.9439,-2.9278,-2.928,-2.9281,0,-2.9336,-2.9361,-2.9334,-2.9341,-2.9333,-2.9345,-2.9348,-2.9305,-2.931,-2.9298,-2.9317,-2.9325,-2.9327,-2.9349,-2.9322,-2.9326,-2.9306,-2.9364,-2.9306,-2.9318,-2.9305,-2.9303,-2.9305,-2.9375,-2.9377,-2.9378,-2.938,0,-2.9468,-2.9451,-2.9456,-2.9458,-2.9463,-2.9461,-2.9456,-2.9466,-2.9419,-2.9428,-2.9439,-2.9442,-2.9449,-2.9457,-2.9456,-2.9444,-2.9405,-2.9399,-2.9409,-2.942,-2.9431,-2.9424,-2.9248,-2.9394,-2.9393,-2.9392,-2.9391,-2.939,-2.9569,-2.9589,-2.9574,-2.9583,-2.9576,-2.9573,-2.9588,-2.9567,-2.9576,-2.9577,-2.9552,-2.9569,-2.9557,-2.9552,-2.9545,-2.9558,-2.9531,-2.9547,-2.955,-2.9554,-2.9561,-2.9433,-2.9558,-2.9558,-2.9557,-2.9557,-2.9556,0,-2.9698,-2.9686,-2.9695,-2.969,-2.9698,-2.9662,-2.9656,-2.9665,-2.968,-2.9672,-2.9677,-2.9691,-2.97,-2.9675,-2.968,-2.9696,-2.9678,-2.9698,-2.9695,-2.9693,-2.9586,-2.9575,-2.9713,-2.9713,-2.9713,-2.9713,-2.9713,-2.9712,-2.9765,-2.9797,-2.9778,-2.9806,-2.9794,-2.981,-2.981,-2.9808,-2.9801,-2.9819,-2.9826,-2.9811,-2.9797,-2.9801,-2.9807,-2.98,-2.9804,-2.983,-2.9817,-2.9716,-2.9701,-2.9686,-2.9676,-2.9832,-2.9832,-2.9923,-2.9924,-2.9924]},{"header":{"parameterUnit":"m.s-1","parameterCategory":1,"la1":30.2991,"la2":30.254,"lo1":-89.0895,"lo2":-89.0444,"dy":0.0017,"dx":0.0017,"nx":28,"ny":28,"refTime":"2024-04-06T03:00:00:Z","depth":0,"parameterNumber":3,"parameterNumberName":"V-component_of_WINDS"},"data":[0,0,0,0,0,0,0,0,0,0,0,0,0,0,0,0,0,0,0,0,0,0,0,0,0,0,0,0,0,0,0,0,0,0,0,0,0,0,0,0,0,0,0,0,0,0,0,0,0,0,0,0,0,0,0,0,0,0,3.2582,3.2583,0,3.2625,3.2626,3.2626,3.2675,3.2676,3.2677,3.2678,3.2718,3.2719,3.2719,0,0,0,0,0,0,0,0,0,0,0,0,0,3.2541,3.2541,3.2582,3.2583,3.2583,3.2625,3.2626,3.2626,3.2675,3.2676,3.2677,3.2678,3.2718,3.2719,3.2719,0,0,0,0,0,0,0,0,0,0,0,0,0,3.2569,3.2542,3.2582,3.2613,3.2616,3.2625,3.2626,3.2626,3.2675,3.2676,3.2677,3.2678,3.2718,3.2719,3.2719,3.27,0,0,3.2721,3.2721,0,0,0,0,0,0,0,0,3.2567,3.257,3.2608,3.2611,3.2614,3.2646,3.2626,3.2651,3.2675,3.2653,3.2678,3.2679,3.2693,3.2696,3.2701,3.2702,3.2704,3.2721,3.2721,3.2721,3.2722,0,0,0,0,0,0,0,3.2565,3.2569,3.2599,3.2608,3.2612,3.2624,3.2629,3.2631,3.2666,3.2655,3.2658,3.2663,3.2695,3.2701,3.2703,3.2704,3.2721,3.2721,3.2722,3.2722,3.2693,3.2692,0,0,0,0,0,0,3.2559,3.2567,3.2598,3.26,3.2593,3.2624,3.263,3.2635,3.2666,3.2672,3.2662,3.2665,3.2699,3.2702,3.2704,3.2685,3.2721,3.2722,3.2722,3.2694,3.2692,3.2691,0,0,0,0,0,0,3.2558,3.2561,3.2596,3.2585,3.259,3.2623,3.2629,3.2635,3.2641,3.2672,3.2678,3.2661,3.27,3.2703,3.2701,3.2687,3.2722,3.2723,3.2695,3.2693,3.2692,3.2645,0,0,0,0,0,0,3.2556,3.2561,3.2554,3.2584,3.259,3.2593,3.2628,3.2635,3.2642,3.2646,3.2673,3.2678,3.2701,3.27,3.2702,3.2688,3.2723,3.2696,3.2694,3.2692,3.2648,3.2642,3.2637,0,0,0,0,0,3.2555,3.2538,3.2553,3.2557,3.2583,3.2592,3.2595,3.2623,3.264,3.2634,3.2654,3.2677,3.2688,3.2699,3.2702,3.2688,3.2698,3.2695,3.2692,3.2651,3.2643,3.2637,0,0,0,0,0,0,3.2504,3.2543,3.256,3.2553,3.2569,3.26,3.2593,3.2614,3.2625,3.2629,3.2662,3.2668,3.2662,3.2675,3.2686,3.2672,3.2696,3.2694,3.2664,3.2657,3.2652,3.2648,3.2724,0,0,0,0,0,3.2492,3.2497,3.253,3.2521,3.2528,3.2559,3.2564,3.2584,3.2602,3.2608,3.2628,3.2644,3.2651,3.2655,3.2663,3.265,3.2657,3.2642,3.2637,3.2632,3.263,3.2625,3.2619,3.2683,3.2683,3.2683,0,0,3.2467,3.2489,3.249,3.2511,3.2526,3.253,3.2564,3.2566,3.2569,3.2608,3.2608,3.2623,3.2643,3.2636,3.2633,3.2646,3.2614,3.2629,3.2625,3.2625,3.2622,3.2616,3.261,3.2681,3.2682,3.2682,0,0,3.2424,3.2441,3.2436,3.245,3.2473,3.2494,3.2493,3.2521,3.2533,3.2534,3.2563,3.2567,3.2578,3.2591,3.2599,3.2563,3.2584,3.2564,3.2535,3.253,3.2525,3.2521,3.2508,3.2503,3.2562,3.2562,3.2561,0,3.239,3.2398,3.243,3.2431,3.2439,3.2476,3.2471,3.2483,3.2507,3.2511,3.2526,3.2542,3.2557,3.2554,3.2546,3.2551,3.255,3.2561,3.2523,3.2519,3.2516,3.2504,3.2499,3.2559,3.2559,3.256,3.256,0,3.2355,3.236,3.2353,3.2377,3.2385,3.2382,3.2413,3.2417,3.2437,3.2456,3.2456,3.2477,3.249,3.2491,3.2509,3.2491,3.2498,3.2517,3.2542,3.2507,3.2496,3.2492,3.2555,3.2556,3.2557,3.2558,0,0,3.2281,3.2323,3.232,3.2332,3.236,3.2364,3.2364,3.2378,3.2381,3.2396,3.2397,3.2406,3.2425,3.2433,3.2454,3.245,3.242,3.247,3.2471,3.246,3.2401,3.2387,3.2381,3.2435,3.2434,3.2434,3.24,0,3.2243,3.2246,3.2275,3.2269,3.2274,3.231,3.2309,3.2326,3.2345,3.2351,3.2371,3.2377,3.2401,3.2407,3.2404,3.2424,3.2409,3.2427,3.2435,3.2435,3.243,3.2376,3.236,3.2328,3.2396,3.2395,3.2395,0,3.2199,3.2214,3.2209,3.2239,3.2242,3.2241,3.2258,3.2263,3.2283,3.2297,3.2308,3.2332,3.2333,3.2356,3.2358,3.237,3.2375,3.2386,3.2385,3.2387,3.2413,3.2376,3.2318,3.2313,3.2389,3.2389,3.239,0,3.2146,3.2164,3.2164,3.2173,3.2207,3.2206,3.222,3.2242,3.2249,3.2263,3.2268,3.2281,3.2288,3.2297,3.2324,3.2339,3.2323,3.2349,3.2334,3.2333,3.2329,3.2329,3.227,3.2331,3.2332,3.2332,3.2332,0,3.2102,3.2097,3.2141,3.2141,3.2137,3.217,3.2166,3.2183,3.2202,3.2205,3.2236,3.2239,3.2274,3.228,3.23,3.2299,3.2302,3.2313,3.2318,3.231,3.2309,3.2314,3.2317,3.233,3.2331,3.2331,3.2331,0,3.2042,3.2071,3.2073,3.2106,3.2115,3.211,3.2138,3.2139,3.216,3.2164,3.2167,3.2198,3.2207,3.2235,3.225,3.2264,3.2257,3.2267,3.2251,3.2254,3.2238,3.224,3.2181,3.2176,3.2239,3.2239,3.2238,0,3.2011,3.2009,3.2043,3.2048,3.2061,3.2069,3.2077,3.211,3.2117,3.214,3.2138,3.215,3.2161,3.2174,3.2198,3.221,3.2221,3.22,3.2223,3.2215,3.2221,3.2221,3.2221,3.2195,3.2194,3.2193,3.2192,0,3.1955,3.197,3.1981,3.1998,3.2007,3.2021,3.2036,3.2039,3.2075,3.2081,3.2092,3.2101,3.2117,3.2129,3.2145,3.2158,3.2181,3.2185,3.2182,3.2174,3.2165,3.217,3.2237,3.2186,3.2187,3.2187,3.2188,3.2188,3.191,3.191,3.1934,3.1945,3.1961,3.1975,3.1978,3.2,3.201,3.2027,3.2045,3.2053,3.2074,3.2099,3.2111,3.2117,3.2129,3.2125,3.2124,3.2123,3.2119,3.2164,3.212,3.212,3.212,3.2121,3.2121,0,3.1855,3.1873,3.1883,3.1905,3.1914,3.1937,3.1955,3.1961,3.1969,3.1987,3.1998,3.201,3.2021,3.2046,3.206,3.206,3.2071,3.2063,3.2063,3.2066,3.2107,3.2109,3.2054,3.2054,3.2054,3.2054,3.2054,3.2054,3.1828,3.183,3.1848,3.1858,3.1875,3.1885,3.1894,3.1907,3.1922,3.1935,3.1945,3.1962,3.1983,3.1998,3.2009,3.2016,3.202,3.2008,3.2019,3.2057,3.2063,3.2069,3.2071,3.2009,3.2009,3.1977,3.1977,3.1976]}]]